Weather History for KAVK - April, 2013

Change the Weather History Date:

Saturday, April 6, 2013

  Actual Average Record
Temperature  
Mean Temperature 64 °F -  
Max Temperature 77 °F 74 °F 99 °F (1954)
Min Temperature 51 °F 42 °F 27 °F (1950)
Degree Days  
Heating Degree Days 1    
Growing Degree Days 14 (Base 50)    
Moisture  
Dew Point 44 °F    
Average Humidity 54    
Maximum Humidity 82    
Minimum Humidity 27    
Precipitation  
Precipitation 0.00 in - - ()
Sea Level Pressure  
Sea Level Pressure 29.80 in    
Wind  
Wind Speed 15 mph (SSW)    
Max Wind Speed 30 mph    
Max Gust Speed 34 mph    
Visibility 10 miles    
Events      
Averages and records for this station are not official NWS values.
T = Trace of Precipitation, MM = Missing Value Source: NWS Daily Summary

Daily Weather History Graph

Daily Weather History Graph

Search for Another Location

Airport or City:

Trip Planner

Search our weather history database for the weather conditions in past years. The results will help you decide how hot, cold, wet, or windy it might be!

Date:

Astronomy

Apr. 06, 2013 Rise Set
Actual Time 7:12 AM CDT 8:01 PM CDT
Civil Twilight 6:46 AM CDT 8:27 PM CDT
Nautical Twilight 6:15 AM CDT 8:59 PM CDT
Astronomical Twilight 5:43 AM CDT 9:31 PM CDT
Moon 4:52 AM CDT (4/6) 4:36 PM CDT (4/6)
Length of Visible Light 13h 41m
Length of Day
12h 48m
Waning Crescent, 15% of the Moon is Illuminated
Apr 6
Waning Crescent
Apr 10
New
Apr 18
First Quarter
Apr 25
Full
May 2
Last Quarter

Hourly Weather History & Observations

Time (CDT) Temp. Dew Point Humidity Pressure Visibility Wind Dir Wind Speed Gust Speed Precip Events Conditions
12:10 AM 55.4 °F 44.6 °F 67% 29.78 in 10.0 mi South 23.0 mph 29.9 mph N/A   Overcast
12:30 AM 55.4 °F 44.6 °F 67% 29.77 in 10.0 mi South 23.0 mph 28.8 mph N/A   Mostly Cloudy
12:50 AM 55.4 °F 44.6 °F 67% 29.77 in 10.0 mi South 20.7 mph 29.9 mph N/A   Overcast
1:10 AM 55.4 °F 44.6 °F 67% 29.77 in 10.0 mi South 23.0 mph 28.8 mph N/A   Overcast
1:30 AM 57.2 °F 44.6 °F 63% 29.76 in 10.0 mi South 20.7 mph 29.9 mph N/A   Mostly Cloudy
1:50 AM 57.2 °F 44.6 °F 63% 29.76 in 10.0 mi SSW 20.7 mph 27.6 mph N/A   Scattered Clouds
2:10 AM 57.2 °F 44.6 °F 63% 29.76 in 10.0 mi SSW 24.2 mph 29.9 mph N/A   Mostly Cloudy
2:30 AM 57.2 °F 44.6 °F 63% 29.76 in 10.0 mi South 20.7 mph 26.5 mph N/A   Mostly Cloudy
2:50 AM 57.2 °F 44.6 °F 63% 29.74 in 10.0 mi South 19.6 mph - N/A   Scattered Clouds
3:10 AM 57.2 °F 44.6 °F 63% 29.72 in 10.0 mi South 26.5 mph 33.4 mph N/A   Scattered Clouds
3:30 AM 57.2 °F 44.6 °F 63% 29.71 in 10.0 mi South 29.9 mph 34.5 mph N/A   Mostly Cloudy
3:50 AM 59.0 °F 44.6 °F 59% 29.72 in 10.0 mi South 23.0 mph 32.2 mph N/A   Mostly Cloudy
4:10 AM 59.0 °F 44.6 °F 59% 29.73 in 10.0 mi South 20.7 mph 32.2 mph N/A   Partly Cloudy
4:30 AM 59.0 °F 44.6 °F 59% 29.78 in 10.0 mi WSW 12.7 mph 25.3 mph N/A   Clear
4:50 AM 57.2 °F 44.6 °F 63% 29.75 in 10.0 mi WSW 9.2 mph - N/A   Clear
5:10 AM 55.4 °F 46.4 °F 72% 29.78 in 10.0 mi West 8.1 mph 19.6 mph N/A   Clear
5:30 AM 55.4 °F 46.4 °F 72% 29.76 in 10.0 mi SSW 15.0 mph - N/A   Clear
5:50 AM 55.4 °F 46.4 °F 72% 29.76 in 10.0 mi SSW 13.8 mph 19.6 mph N/A   Clear
6:10 AM 53.6 °F 44.6 °F 72% 29.76 in 10.0 mi SSW 17.3 mph 20.7 mph N/A   Partly Cloudy
6:30 AM 53.6 °F 44.6 °F 72% 29.78 in 10.0 mi SSW 13.8 mph - N/A   Scattered Clouds
6:50 AM 53.6 °F 46.4 °F 77% 29.78 in 10.0 mi SSW 15.0 mph - N/A   Partly Cloudy
7:10 AM 51.8 °F 46.4 °F 82% 29.78 in 10.0 mi South 13.8 mph - N/A   Clear
7:30 AM 51.8 °F 46.4 °F 82% 29.78 in 10.0 mi SSW 16.1 mph - N/A   Clear
7:50 AM 51.8 °F 46.4 °F 82% 29.79 in 10.0 mi SSW 13.8 mph - N/A   Clear
8:10 AM 51.8 °F 46.4 °F 82% 29.79 in 10.0 mi SSW 17.3 mph - N/A   Clear
8:30 AM 53.6 °F 46.4 °F 77% 29.80 in 10.0 mi SSW 13.8 mph 19.6 mph N/A   Clear
8:50 AM 55.4 °F 46.4 °F 72% 29.80 in 10.0 mi SSW 16.1 mph 20.7 mph N/A   Clear
9:10 AM 55.4 °F 48.2 °F 77% 29.80 in 10.0 mi SW 13.8 mph - N/A   Clear
9:30 AM 57.2 °F 48.2 °F 72% 29.81 in 10.0 mi SW 11.5 mph - N/A   Clear
9:50 AM 59.0 °F 48.2 °F 67% 29.81 in 10.0 mi SW 13.8 mph 19.6 mph N/A   Clear
10:10 AM 62.6 °F 48.2 °F 59% 29.81 in 10.0 mi West 8.1 mph - N/A   Clear
10:30 AM 64.4 °F 48.2 °F 56% 29.80 in 10.0 mi West 8.1 mph - N/A   Clear
10:50 AM 66.2 °F 48.2 °F 52% 29.81 in 10.0 mi WNW 5.8 mph - N/A   Clear
11:10 AM 69.8 °F 44.6 °F 40% 29.82 in 10.0 mi North 10.4 mph - N/A   Clear
11:30 AM 71.6 °F 44.6 °F 38% 29.82 in 10.0 mi North 11.5 mph 16.1 mph N/A   Clear
11:50 AM 73.4 °F 42.8 °F 33% 29.82 in 10.0 mi North 5.8 mph - N/A   Clear
12:10 PM 73.4 °F 42.8 °F 33% 29.81 in 10.0 mi North 11.5 mph 17.3 mph N/A   Clear
12:30 PM 73.4 °F 42.8 °F 33% 29.82 in 10.0 mi North 16.1 mph 24.2 mph N/A   Clear
12:50 PM 75.2 °F 41.0 °F 29% 29.82 in 10.0 mi North 13.8 mph 18.4 mph N/A   Clear
1:10 PM 73.4 °F 39.2 °F 29% 29.83 in 10.0 mi NNE 11.5 mph 20.7 mph N/A   Clear
1:30 PM 73.4 °F 41.0 °F 31% 29.83 in 10.0 mi North 9.2 mph - N/A   Clear
1:50 PM 73.4 °F 41.0 °F 31% 29.82 in 10.0 mi North 9.2 mph - N/A   Clear
2:10 PM 75.2 °F 41.0 °F 29% 29.82 in 10.0 mi North 8.1 mph - N/A   Clear
2:30 PM 75.2 °F 39.2 °F 27% 29.82 in 10.0 mi NNW 8.1 mph - N/A   Clear
2:50 PM 75.2 °F 41.0 °F 29% 29.81 in 10.0 mi North 5.8 mph - N/A   Clear
3:10 PM 75.2 °F 41.0 °F 29% 29.81 in 10.0 mi North 8.1 mph - N/A   Clear
3:30 PM 75.2 °F 42.8 °F 31% 29.81 in 10.0 mi North 11.5 mph - N/A   Clear
3:50 PM 75.2 °F 39.2 °F 27% 29.80 in 10.0 mi North 8.1 mph - N/A   Clear
4:10 PM 75.2 °F 39.2 °F 27% 29.80 in 10.0 mi NNW 9.2 mph - N/A   Clear
4:30 PM 77.0 °F 41.0 °F 28% 29.80 in 10.0 mi NNW 10.4 mph - N/A   Clear
4:50 PM 75.2 °F 41.0 °F 29% 29.80 in 10.0 mi North 13.8 mph 17.3 mph N/A   Clear
5:10 PM 75.2 °F 39.2 °F 27% 29.80 in 10.0 mi North 12.7 mph 19.6 mph N/A   Clear
5:30 PM 73.4 °F 39.2 °F 29% 29.79 in 10.0 mi North 11.5 mph - N/A   Clear
5:50 PM 73.4 °F 41.0 °F 31% 29.79 in 10.0 mi NNE 9.2 mph - N/A   Clear
6:10 PM 73.4 °F 41.0 °F 31% 29.79 in 10.0 mi NE 6.9 mph - N/A   Clear
6:30 PM 73.4 °F 44.6 °F 36% 29.81 in 10.0 mi North 4.6 mph - N/A   Clear
6:50 PM 75.2 °F 41.0 °F 29% 29.81 in 10.0 mi Calm Calm - N/A   Clear
7:10 PM 69.8 °F 46.4 °F 43% 29.82 in 10.0 mi Calm Calm - N/A   Clear
7:30 PM 69.8 °F 44.6 °F 40% 29.82 in 10.0 mi East 3.5 mph - N/A   Clear
7:50 PM 66.2 °F 46.4 °F 49% 29.82 in 10.0 mi SE 3.5 mph - N/A   Clear
8:10 PM 66.2 °F 48.2 °F 52% 29.84 in 10.0 mi ESE 3.5 mph - N/A   Clear
8:30 PM 64.4 °F 48.2 °F 56% 29.84 in 10.0 mi ESE 5.8 mph - N/A   Clear
8:50 PM 64.4 °F 48.2 °F 56% 29.85 in 10.0 mi SE 5.8 mph - N/A   Clear
9:10 PM 60.8 °F 46.4 °F 59% 29.86 in 10.0 mi ESE 5.8 mph - N/A   Clear
9:30 PM 62.6 °F 44.6 °F 52% 29.86 in 10.0 mi ESE 5.8 mph - N/A   Clear
9:50 PM 59.0 °F 44.6 °F 59% 29.86 in 10.0 mi SE 5.8 mph - N/A   Clear
10:10 PM 60.8 °F 41.0 °F 48% 29.86 in 10.0 mi SE 5.8 mph - N/A   Clear
10:30 PM 57.2 °F 44.6 °F 63% 29.87 in 10.0 mi SSE 4.6 mph - N/A   Clear
10:50 PM 55.4 °F 46.4 °F 72% 29.86 in 10.0 mi SSE 5.8 mph - N/A   Clear
11:10 PM 55.4 °F 48.2 °F 77% 29.87 in 10.0 mi SSE 3.5 mph - N/A   Clear
11:30 PM 55.4 °F 48.2 °F 77% 29.87 in 10.0 mi South 4.6 mph - N/A   Clear
11:50 PM 55.4 °F 48.2 °F 77% 29.87 in 10.0 mi SSW 3.5 mph - N/A   Clear